Regional Weather Roundup
Issued by NWS Sterling, VA

Home | Current Version | Previous Version | Graphics & Text | Print | Product List | Glossary On
Versions: 1 2 3 4 5 6 7 8 9 10 11 12 13 14 15 16 17 18 19 20 21 22 23 24 25 26 27 28 29 30 31 32 33 34 35 36 37 38 39 40 41 42 43 44 45 46 47 48 49 50
000
ASUS41 KLWX 281610
RWRLWX

REGIONAL WEATHER ROUNDUP
NATIONAL WEATHER SERVICE BALTIMORE MD/WASHINGTON DC
1100 AM EST SUN DEC 28 2014

Note: "FAIR" indicates few or no clouds below 12,000 feet
with no significant weather and/or obstructions to visibility.
 TC=TEMPERATURE CELSIUS

 * =Non NWS site. Station does not report precipitation (e.g. rain,
    snow, etc.), thunder, or fog.

DCZ001-MDZ009-015-VAZ040>042-051-053>054-281700-
WASHINGTON METRO

CITY           SKY/WX    TMP DP  RH WIND       PRES   REMARKS
WASHINGTON NAT CLOUDY    55  40  56 S7        29.98F
DULLES         CLOUDY    52  42  69 SW3       29.99R
ANDREWS AFB    CLOUDY    55  40  58 SW7       29.97S
FT BELVOIR     CLOUDY    55  40  57 CALM      29.99F
QUANTICO       PTSUNNY   51  39  63 SW5       29.99F
COLLEGE PARK*  CLOUDY    54  41  62 CALM      29.97R
LEESBURG*      CLOUDY    54  43  66 CALM      29.98R
MANASSAS*      CLOUDY    55  43  62 CALM      29.99R
GAITHERSBURG*  CLOUDY    54  37  54 W3        30.00R

$$

MDZ006>007-011-014-281700-
BALTIMORE METRO

CITY           SKY/WX    TMP DP  RH WIND       PRES   REMARKS
BWI AIRPORT    CLOUDY    54  40  59 VRB6      29.95F
MD SCIENCE CTR   N/A     53  43  68 MISG      29.98F
MARTIN STATE   MOSUNNY   48  45  87 CALM      29.97F
ANNAPOLIS      CLOUDY    46  41  82 SE6       29.96F
FORT MEADE*    CLOUDY    52  41  66 W5        29.99S

$$

MDZ012-015-019>023-281700-
MARYLAND EASTERN SHORE

CITY           SKY/WX    TMP DP  RH WIND       PRES   REMARKS
OCEAN CITY     PTSUNNY   58  44  60 W10G18    29.97F
SALISBURY      CLOUDY    58  43  57 W9        29.98F
BAY BRIDGE AP*   N/A     54  37  54 S5        29.97F
CAMBRIDGE*     CLOUDY    55  41  58 CALM      29.97F
EASTON*        MOSUNNY   55  45  67 SW8       30.00F

$$

MDZ017>025-281700-
SOUTHERN MARYLAND

CITY           SKY/WX    TMP DP  RH WIND       PRES   REMARKS
PATUXENT RIVER CLOUDY    58  39  49 NW5       29.97F
ST INIGOES     CLOUDY    58  40  51 W6        29.97F
LEONARDTOWN*   CLOUDY    57  37  47 W8        29.98F

$$

MDZ003>005-281700-
NORTH CENTRAL MARYLAND

CITY           SKY/WX    TMP DP  RH WIND       PRES   REMARKS
FREDERICK*     SUNNY     57  39  51 NW8       30.00R
HAGERSTOWN APT PTSUNNY   55  42  61 W13       29.96R
WESTMINSTER*   CLOUDY    52  41  66 W5        29.96R

$$

MDZ501>502-281700-
WESTERN MARYLAND

CITY           SKY/WX    TMP DP  RH WIND       PRES   REMARKS
OAKLAND*       CLOUDY    41 N/A N/A W10G17    29.97F FOG
CUMBERLAND*    CLOUDY    54  41  62 W10       30.03R

$$

VAZ025>031-281700-
SHENANDOAH VALLEY

CITY           SKY/WX    TMP DP  RH WIND       PRES   REMARKS
WINCHESTER*    CLOUDY    54  32  43 CALM      29.97R
FRONT ROYAL*   FAIR      52  36  54 CALM      29.97R
LURAY*         PTSUNNY   54  41  62 CALM      29.97S
NEW MARKET*    FAIR      49  38  65 CALM      29.97S
STAUNTON*      CLOUDY    59  44  56 W7        30.00R
WAYNESBORO*    FAIR      57  44  61 SW6       29.99R

$$

WVZ021-048>050-054>055-281700-
EASTERN WEST VIRGINIA PANHANDLE

CITY           SKY/WX    TMP DP  RH WIND       PRES   REMARKS
MARTINSBURG    CLOUDY    56  40  55 W9        29.98R
PETERSBURG*    CLOUDY    57  40  53 CALM      30.00S

$$

VAZ036>039-050-281700-
CENTRAL FOOTHILLS

CITY           SKY/WX    TMP DP  RH WIND       PRES   REMARKS
CHARLOTTESVILL CLOUDY    56  39  53 S12       29.97R
CULPEPER*      CLOUDY    55  39  54 CALM      29.98S
ORANGE*        CLOUDY    55  41  58 S7        29.98F
GORDONSVILLE*  FAIR      54  39  57 SW8       29.97F
WARRENTON*     FAIR      56  46  67 S3        29.98R

$$

VAZ055>057-281700-
NORTH AND CENTRAL PIEDMONT

CITY           SKY/WX    TMP DP  RH WIND       PRES   REMARKS
FREDERICKSBRG* CLOUDY    58  40  51 W3        29.97R
STAFFORD*      CLOUDY    56  39  53 N3        30.02R

$$

NCZ024-NYZ072-PAZ021-071-VAZ022-071-281700-
OTHER REGIONAL OBSERVATIONS

CITY           SKY/WX    TMP DP  RH WIND       PRES   REMARKS
NEW YORK CITY  CLOUDY    47  40  76 VRB5G17   29.92F
PHILADELPHIA   CLOUDY    49  42  77 W7        29.95F
PITTSBURGH     DRIZZLE   37  35  92 NW10      30.05R FOG
ROANOKE        CLOUDY    57  38  48 W7        30.03S
RICHMOND       CLOUDY    62  43  49 SW13      29.99F
RALEIGH        CLOUDY    58  51  78 W10       30.08S

$$

ANZ530>537-281700-
MARINE OBSERVATIONS

STATION/POSITION TIME  TEMP    WIND        PRES
                       AIR SEA DIR/SP/G
                 (UTC) (F)     (DEG/KT/KT) (MB)
THOMAS PT LIGHT  1600   48 43  190/ 11/ 12 1016.0F
BALT KEY BRIDGE  1600   47     100/  1/  2 1014.0F
COVE POINT       1600   54     350/  3/  5 1015.0F
LEWISETTA        1600   58 45  240/ 12/ 16 1014.5S
SOLOMONS ISLAND  1600      44                N/A
PINEY POINT      1600          350/  6/  7   N/A

$$



USA.gov is the U.S. government's official web portal to all federal, state and local government web resources and services.